Powrót do katalogu

STARLINK-1230

AktywnyŁącznośćVLEO
NORAD 45189·PAYLOAD·🇺🇸 United States

Wystrzelony Feb 17, 2020 z Cape Canaveral Space Force Station

Loading…

Następne Przeloty (najbliższe 24 godziny)

TLE

ŚwieżeSource: CelesTrak SupGP

Epoka: Sep 14, 2026, 21:49 UTC

1 45189C 20012M   26257.90951389  .00071763  00000+0  15945-2 0  2574
2 45189  53.1508 233.5524 0002440  76.4592  12.0043 15.43064206    10

Śledź STARLINK-1230 w czasie rzeczywistym z AllMySat

Download on the App Store